Regional Weather Roundup
Issued by NWS State College, PA

Home | Current Version | Previous Version | Graphics & Text | Print | Product List | Glossary On
Versions: 1 2 3 4 5 6 7 8 9 10 11 12 13 14 15 16 17 18 19 20 21 22 23 24 25 26 27 28 29 30 31 32 33 34 35 36 37 38 39 40 41 42 43 44 45 46 47 48 49 50
140
ASUS41 KCTP 241010
RWRCTP

REGIONAL WEATHER ROUNDUP
NATIONAL WEATHER SERVICE STATE COLLEGE PA
500 AM EST FRI NOV 24 2017

Note: "fair" indicates few or no clouds below 12,000 feet with no
significant weather and/or obstructions to visibility.

* = STATION THAT DOES NOT REPORT PRECIPITATION /E.G. RAIN...SNOW...ETC/
    THUNDER OR FOG.

PAZ002>004-007>009-013>016-020>023-029>032-241100-
WESTERN PENNSYLVANIA

CITY           SKY/WX    TMP DP  RH WIND       PRES   REMARKS
ERIE           CLEAR     33  24  69 S10       29.95F
MEADVILLE      CLEAR     30  22  72 S5        29.95F
FRANKLIN*      CLEAR     27  21  78 S6        29.97S
NEW CASTLE     FAIR      29  23  78 CALM      30.00R
BEAVER COUNTY  NOT AVBL
BUTLER*        CLOUDY    29  23  78 S3        29.99S
PITTSBURGH INT CLOUDY    28  22  78 SE3       29.98S
PITTSBURGH     CLEAR     30  19  63 S9        29.98F
INDIANA*       CLEAR     27  23  86 CALM      30.03R
LATROBE        CLEAR     27  23  86 CALM      30.01S
WASHINGTON CO* CLOUDY    25  21  85 S6        30.03S
$$

PAZ004>006-010>012-017>019-024>028-033>037-041-042-045-046-049>053-241100-
CENTRAL PENNSYLVANIA

CITY           SKY/WX    TMP DP  RH WIND       PRES   REMARKS
BRADFORD       CLEAR     23  21  92 CALM      29.93S
DUBOIS         CLEAR     28  19  69 CALM      29.96R
CLEARFIELD     CLEAR     29  22  75 SW3       29.99R
JOHNSTOWN      CLOUDY    29  20  69 S7        29.95S
ALTOONA        CLEAR     34  20  56 S6        29.99F
STATE COLLEGE  CLEAR     32  20  62 SW5       30.00R
WILLIAMSPORT   CLEAR     30  25  81 CALM      30.02S
SELINSGROVE    CLEAR     25  24  96 CALM      30.05S
FT INDIANTOWN  CLOUDY    22  22  99 CALM      30.04F
CAPITAL CITY   CLEAR     25  21  85 SW3       30.06R
HARRISBURG     CLOUDY    26  24  92 CALM      30.05S
YORK           CLOUDY    22  21  96 CALM      30.05S
$$

PAZ038>040-043-044-047-048-054-055-060>062-067>071-241100-
EASTERN PENNSYLVANIA

CITY           SKY/WX    TMP DP  RH WIND       PRES   REMARKS
SCRANTON       PTCLDY    30  23  75 CALM      29.99F
MOUNT POCONO   CLEAR     27  20  75 NW5       29.95S
ALLENTOWN      CLOUDY    25  19  78 CALM      30.05R
QUAKERTOWN*    CLOUDY    23  19  86 CALM      30.05S
READING        CLOUDY    26  24  92 CALM      30.05S
LANCASTER      CLOUDY    24  22  91 E3        30.06R
COATESVILLE    CLOUDY    30  21  69 W5        30.05S
POTTSTOWN      CLOUDY    23  20  88 CALM      30.07S
BLUE BELL      CLOUDY    25  23  93 CALM      30.07F
DOYLESTOWN     CLEAR     28  22  78 SW5       30.03S
WILLOW GROVE   NOT AVBL
NORTH PHILA    CLEAR     28  22  78 CALM      30.07S
PHILADELPHIA   CLEAR     31  26  82 W5        30.08R
$$




USA.gov is the U.S. government's official web portal to all federal, state and local government web resources and services.